Tracking 25734 objects as of 28-May-2022
HD Live streaming from Space Station
objects crossing your sky now

DMSP 5D-2 F11 DEB

Track DMSP 5D-2 F11 DEB now!
10-day predictions


NORAD ID: 28312
Int'l Code: 1991-082Z
Perigee: 817.8 km
Apogee: 836.5 km
Inclination: 98.8 °
Period: 101.3 minutes
Semi major axis: 7198 km
RCS: 0.0099 m2 (small)
Launch date: November 28, 1991
Source: United States (US)
Launch site: AIR FORCE WESTERN TEST RANGE (AFWTR)

Note: This is SATELLITE DEBRIS
aabbcc
Your satellite tracking list
Your tracking list is empty




NASA's NSSDC Master Catalog

Two Line Element Set (TLE):
1 28312U 91082Z   22147.90827921  .00000794  00000-0  38213-3 0  9990
2 28312  98.7580 178.6599 0013020  88.5615 271.7054 14.21576125936467
Source of the keplerian elements: AFSPC